TimeCST,TemperatureF,Dew PointF,Humidity,Sea Level PressureIn,VisibilityMPH,Wind Direction,Wind SpeedMPH,Gust SpeedMPH,PrecipitationIn,Events,Conditions,WindDirDegrees,DateUTC
1:00 AM,68.0,60.8,78,29.99,-9999.0,East,5.8,-,N/A,,Clear,90,2012-10-13 07:00:00
2:00 AM,68.0,60.8,78,29.97,-9999.0,ENE,4.6,-,N/A,,Clear,70,2012-10-13 08:00:00
3:00 AM,68.0,60.8,78,29.97,-9999.0,ENE,5.8,-,N/A,,Clear,70,2012-10-13 09:00:00
4:00 AM,64.4,60.8,88,29.98,-9999.0,ENE,8.1,-,N/A,,Clear,60,2012-10-13 10:00:00
5:00 AM,68.0,60.8,78,29.99,-9999.0,ENE,8.1,-,N/A,,Clear,70,2012-10-13 11:00:00
6:00 AM,68.0,60.8,78,30.00,-9999.0,ENE,8.1,-,N/A,,Clear,60,2012-10-13 12:00:00
7:00 AM,73.4,62.6,69,30.03,-9999.0,ENE,3.5,-,N/A,,Clear,60,2012-10-13 13:00:00
8:00 AM,75.2,62.6,65,30.03,6.2,ENE,6.9,-,N/A,,Mostly Cloudy,60,2012-10-13 14:00:00
9:00 AM,79,63,48,29.86,12,ESE,5.8,,,,Scattered Clouds,120,2012-10-13 15:00:00
9:00 AM,78.8,62.6,57,30.03,6.2,ESE,5.8,-,N/A,,Mostly Cloudy,120,2012-10-13 15:00:00
10:00 AM,80.6,62.6,54,30.01,6.2,ESE,8.1,-,N/A,,Mostly Cloudy,110,2012-10-13 16:00:00
10:20 AM,78.8,68.0,69,30.00,6.2,SW,12.7,-,N/A,,Mostly Cloudy,230,2012-10-13 16:20:00
11:00 AM,75.2,66.2,73,30.00,6.2,West,13.8,-,N/A,,Mostly Cloudy,260,2012-10-13 17:00:00
12:00 PM,76,68,69,29.83,12,WSW,10.4,,,,Overcast,250,2012-10-13 18:00:00
12:00 PM,77.0,68.0,74,29.97,6.2,WSW,10.4,-,N/A,,Mostly Cloudy,250,2012-10-13 18:00:00
1:00 PM,78.8,68.0,69,29.94,6.2,SW,9.2,-,N/A,,Mostly Cloudy,220,2012-10-13 19:00:00
2:00 PM,77.0,69.8,78,29.92,6.2,WSW,9.2,-,N/A,,Mostly Cloudy,250,2012-10-13 20:00:00
3:00 PM,77,69,71,29.77,12,West,10.4,,,,Overcast,260,2012-10-13 21:00:00
3:00 PM,77.0,69.8,78,29.91,6.2,West,10.4,-,N/A,,Mostly Cloudy,260,2012-10-13 21:00:00
4:00 PM,73.4,68.0,83,29.91,6.2,WSW,9.2,-,N/A,,Mostly Cloudy,250,2012-10-13 22:00:00
5:00 PM,71.6,68.0,88,29.95,5.0,WSW,5.8,-,N/A,,Mostly Cloudy,240,2012-10-13 23:00:00
5:10 PM,71.6,68.0,88,29.96,3.1,WSW,3.5,-,N/A,Rain-Thunderstorm,Light Thunderstorms and Rain,240,2012-10-13 23:10:00
6:00 PM,72,69,87,29.85,9,South,2.3,,,Rain,Light Rain,170,2012-10-14 00:00:00
6:00 PM,71.6,69.8,94,29.98,6.2,South,2.3,-,N/A,Rain,Light Rain,170,2012-10-14 00:00:00
7:00 PM,68.0,66.2,94,29.99,5.0,SW,5.8,-,N/A,Fog,Fog,220,2012-10-14 01:00:00
8:00 PM,68.0,66.2,94,30.02,1.9,WSW,5.8,-,N/A,,Mostly Cloudy,250,2012-10-14 02:00:00
9:00 PM,68,66,93,29.86,2,WSW,1.2,,,,Mist,240,2012-10-14 03:00:00
9:00 PM,68.0,66.2,94,30.01,1.9,WSW,1.2,-,N/A,,Mostly Cloudy,240,2012-10-14 03:00:00
9:30 PM,68.0,66.2,94,30.01,6.2,ENE,4.6,-,N/A,Fog,Patches of Fog,70,2012-10-14 03:30:00
10:00 PM,68.0,64.4,88,30.01,6.2,ENE,5.8,-,N/A,Fog,Mostly Cloudy,70,2012-10-14 04:00:00
11:00 PM,68.0,62.6,83,30.00,6.2,ENE,5.8,-,N/A,Fog,Mostly Cloudy,60,2012-10-14 05:00:00